Regional Weather Roundup
Issued by NWS

Home | Current Version | Previous Version | Text Only | Print | Product List | Glossary On
Versions: 1 2 3 4 5 6 7 8 9 10 11 12 13 14 15 16 17 18 19 20 21 22 23 24 25 26 27 28 29 30 31 32 33 34 35 36 37 38 39 40 41 42 43 44 45 46 47 48 49 50
000
ASUS43 KMPX 242001
RWRMN
WEATHER ROUNDUP FOR MINNESOTA
NATIONAL WEATHER SERVICE TWIN CITIES/CHANHASSEN MN
300 PM CDT FRI OCT 24 2014


NOTE: "FAIR" INDICATES FEW OR NO CLOUDS BELOW 12,000 FEET WITH NO
SIGNIFICANT WEATHER AND/OR OBSTRUCTIONS TO VISIBILITY. N/A MEANS
CURRENT SKY AND/OR WEATHER CONDITIONS ARE NOT AVAILABLE.

MNZ060>063-068>070-242100-
   Twin Cities Metro

CITY           SKY/WX    TMP DP  RH WIND       PRES   REMARKS
TWIN CITIES    PTSUNNY   64  54  69 S6        29.82F
ST PAUL        CLOUDY    63  55  75 S6        29.83F
CRYSTAL        PTSUNNY   68  53  58 SW6       29.80F
BLAINE         PTSUNNY   68  55  64 S8        29.81F
LAKEVILLE      PTSUNNY   63  54  72 S8        29.83F
EDEN PRAIRIE   MOSUNNY   67  54  63 SW9       29.81F
SOUTH ST PAUL  CLOUDY    63  55  74 S7        29.83S
LAKE ELMO      CLOUDY    61  55  82 S8        29.84S
$$
MNZ001>005-007-008-013>017-022>024-027-028-242100-
   Northwest Minnesota

CITY           SKY/WX    TMP DP  RH WIND       PRES   REMARKS
BEMIDJI        SUNNY     71  39  31 W17G23    29.75F
HALLOCK        SUNNY     73  37  27 W29G35    29.66F
ROSEAU         CLOUDY    72  45  37 W16G23    29.65F
WARROAD        CLOUDY    68  48  49 SW12G22   29.65F
THIEF RVR FALL SUNNY     73  45  35 SW18      29.71F
CROOKSTON      SUNNY     75  43  31 W22G33    29.72F
FOSSTON        SUNNY     72  41  33 SW14      29.76F
DETROIT LAKES  SUNNY     70  37  30 W9        29.81S
MOORHEAD       SUNNY     73  34  23 W9G16     29.78F
PARK RAPIDS    MOSUNNY   71  36  27 W12       29.78F
MAHNOMEN         N/A     72  43  35 SW15      29.77
$$
MNZ006-009>011-018-025>026-242100-
   North Central Minnesota

CITY           SKY/WX    TMP DP  RH WIND       PRES   REMARKS
BAUDETTE       CLOUDY    69  43  38 SW12G23   29.66F
FLAG ISLAND    CLOUDY    61  45  55 SW14      29.61F
INTL FALLS     CLOUDY    69  40  34 W12G18    29.67F
WASKISH        PTSUNNY   66  45  45 SW13      29.71F
BIG FORK       MOSUNNY   72  41  33 SW14      29.73S
LONGVILLE      SUNNY     72  39  30 SW10      29.77S
GRAND RAPIDS   SUNNY     70  39  32 W8G17     29.76S
CRANE LAKE     PTSUNNY   66  39  37 SW7       29.71F
ORR            PTSUNNY   70  37  30 SW5       29.69F
COOK           PTSUNNY   70  41  35 SW12      29.72F
WALKER         FAIR      71  38  29 W10G18    29.76S
$$
MNZ012-019>021-037-242100-
   Northeast Minnesota

CITY           SKY/WX    TMP DP  RH WIND       PRES   REMARKS
DULUTH         MOSUNNY   69  51  52 W13       29.76F
ELY            MOSUNNY   68  39  34 SW8G17    29.72F
HIBBING        MOSUNNY   71  41  33 SW10G20   29.74F
EVELETH        MOSUNNY   70  45  40 SW10      29.75F
DULUTH HARBOR  SUNNY     70  55  60 SW14      29.75S
TWO HARBORS    MOSUNNY   70  39  32 S10       29.73F
SILVER BAY     SUNNY     70  52  52 S10       29.73F
GRAND MARAIS     N/A     50  47  89 CALM      29.76F
G MARAIS ARPRT MOSUNNY   57  45  62 S10G16    29.76F
$$
MNZ029>031-032-039>041-046>048-054>057-064-242100-
   West Central Minnesota

CITY           SKY/WX    TMP DP  RH WIND       PRES   REMARKS
FERGUS FALLS   FAIR      72  36  26 W12       29.81F
WHEATON        SUNNY     73  39  29 W9        29.83F
MORRIS         SUNNY     75  43  31 NW13      29.82S
ALEXANDRIA     MOSUNNY   69  42  37 W9        29.83F
ELBOW LAKE     FAIR      72  41  33 W12       29.82S
WADENA         MOSUNNY   70  43  37 W12G17    29.80F
GLENWOOD       MOSUNNY   70  43  37 W10       29.84S
APPLETON       SUNNY     75  37  25 W6        29.82F
BENSON         SUNNY     73  39  29 NW12      29.83S
ORTONVILLE     SUNNY     75  36  23 NW13      29.83S
MADISON        SUNNY     79  36  21 NW7       29.83F
WILLMAR          N/A     72  45  37 W8        29.84F
$$
MNZ033>034-036-042>043-049>051-058-059-242100-
   Central Minnesota

CITY           SKY/WX    TMP DP  RH WIND       PRES   REMARKS
ST CLOUD       MOSUNNY   69  50  50 SW8       29.82S
SAUK CENTRE    FAIR      70  42  36 W9        29.82F
PAYNESVILLE    MOSUNNY   68  45  43 SW9       29.83S
AITKIN         SUNNY     72  46  40 SW6       29.77F
PINE RIVER     MOSUNNY   70  45  40 SW7       29.82S
BRAINERD       MOSUNNY   68  44  42 SW7       29.80F
STAPLES        MOSUNNY   72  37  28 W13       29.80S
LONG PRAIRIE   FAIR      68  41  37 SW5       29.82F
LITTLE FALLS   MOSUNNY   66  45  45 SW5       29.81F
LITCHFIELD     SUNNY     70  54  56 W7        29.84R
BUFFALO        MOSUNNY   66  52  60 SW6       29.84R
MAPLE LAKE     MOSUNNY   67  55  64 SW6       29.84R
$$
MNZ037-044-045-052-053-242100-
   East Central Minnesota

CITY           SKY/WX    TMP DP  RH WIND       PRES   REMARKS
PRINCETON      PTSUNNY   70  54  56 SW3       29.82S
MORA           MOSUNNY   64  52  63 SW9       29.82S
CAMBRIDGE      MOSUNNY   68  54  60 SW6       29.80R
RUSH CITY      MOSUNNY   66  52  62 SW8       29.82S
MOOSE LAKE     SUNNY     66  50  55 SW8       29.77S
HINCKLEY       FAIR      64  54  68 SW9       29.81S
CLOQUET        SUNNY     66  50  55 SW10      29.78S
MCGREGOR       SUNNY     66  48  52 SW9       29.79F
$$
MNZ071>073-080-081-089-090-097-098-242100-
   Southwest Minnesota

CITY           SKY/WX    TMP DP  RH WIND       PRES   REMARKS
MONTEVIDEO     SUNNY     75  46  35 NW7       29.84F
GRANITE FALLS  SUNNY     71  46  40 W8        29.86S
CANBY          MOSUNNY   77  34  21 NW15      29.85F
MARSHALL       MOSUNNY   73  41  31 NW10      29.84F
REDWOOD FALLS  SUNNY     71  51  49 W7        29.83F
OLIVIA         SUNNY     70  52  52 W9        29.84S
PIPESTONE      MOSUNNY   72  37  28 NW9       29.88S
WINDOM         MOSUNNY   73  45  35 W10       29.85S
WORTHINGTON    PTSUNNY   73  41  31 W14       29.87F
JACKSON        PTSUNNY   72  46  40 W6        29.86F
TRACY          PTSUNNY   76  44  32 NW7       29.85F
SLAYTON        PTSUNNY   73  38  28 W13       29.87F
$$
MNZ065>067-074>077-082>085-091>093-242100-
   South Central Minnesota

CITY           SKY/WX    TMP DP  RH WIND       PRES   REMARKS
MANKATO        SUNNY     68  52  56 W9        29.83F
NEW ULM        SUNNY     68  54  60 W8        29.83F
ST JAMES       SUNNY     72  52  49 SW7       29.85S
FAIRMONT       MOSUNNY   72  25  17 W8        29.85S
GLENCOE        SUNNY     69  56  62 SW6       29.82F
FARIBAULT      PTSUNNY   63  55  77 SW6       29.85S
OWATONNA       MOSUNNY   61  55  82 S5        29.85F FOG
WASECA         MOSUNNY   63  50  63 SW8       29.86S
ALBERT LEA     MOSUNNY   64  57  77 SW7       29.85F
$$
MNZ078>079-086>088-094>096-242100-
   Southeast Minnesota

CITY           SKY/WX    TMP DP  RH WIND       PRES   REMARKS
ROCHESTER      CLOUDY    57  54  89 S9        29.88S
RED WING       CLOUDY    59  55  88 SW7G16    29.84S FOG
STANTON        CLOUDY    60  55  84 S7        29.83F HAZE
DODGE CENTER   CLOUDY    57  55  94 S12       29.86S
WINONA         CLOUDY    59  57  94 S3        29.86F FOG
AUSTIN         CLOUDY    57  55  94 SW8       29.87R FOG
PRESTON        CLOUDY    55  53  92 SW10      29.89S FOG
$$
ABBREVIATIONS USED IN REMARKS
   TC - TEMPERATURES IN CELSIUS
  WCI - WIND CHILL INDEX
   HX - HEAT INDEX
  VSB - VISIBILITY
$$



USA.gov is the U.S. government's official web portal to all federal, state and local government web resources and services.